Погода в Лопшеньге

Россия / Архангельская область     64°58′21″N   37°41′24″E
В апреле 2022 года жителям России запретили посещать сайт meteo.paraplan.net по решению Генеральной прокуратуры. Аудитория сайта уменьшилась в 10 раз. Владельцы сайта не видят смысла в поддержке погодного сервера в таких условиях. Сайт будет закрыт в октябре.
темп.,
°C
ветер,
м/с
пор.,
м/с
влажн.,
%
обл.,
%
осадки,
мм/ч
давл.,
гПа
погр.,
м
30 сентября, пт
пт3000:00+2юв6886100 0.2 1014737
03:00+1юв5896100 0.3 1014489
06:00+1ююв5898100 1.1 1013337
09:00+2ююв4798100 2.0 1012327
12:00+2ююв4799100 1.6 1012362
15:00+3ююв3697100 1.7 1012384
18:00+4ююв359492 0.0 1012269
21:00+4ююв3595100 0.0 1012238
1 октября, сб
сб100:00+4юв2496100 0.3 1010191
03:00+4ююв2296100 0.3 1010114
06:00+5зюз2295100 0.1 1009101
09:00+5з359361 0.4 1011319
12:00+6з478560 0.1 1011643
15:00+7зюз35756 0.1 1012800
18:00+5ю3489100 0.0 1012165
21:00+5ю489182 0.1 1011215
2 октября, вс
вс200:00+4юз369368 0.1 1011135
03:00+4зюз369625 0.1 1010197
06:00+3з34925 0.0 1010120
09:00+4з35875 0.0 1011213
12:00+7зсз34675 0.0 1010637
15:00+7сз346825 0.0 1010615
18:00+5сз237996 0.0 1010211
21:00+5зсз228089 0.0 1011184
3 октября, пн
пн300:00+5зюз2279100 0.0 1011114
03:00+5юз1278100 0.0 101180
06:00+5ю1282100 0.0 101276
09:00+5ю238883 0.1 1013122
12:00+8ююв118287 0.0 1014302
15:00+8в338393 0.0 1015227
18:00+6вюв4688100 0.0 1016234
21:00+6в5883100 0.0 1015454
4 октября, вт
вт400:00+6в71080100 0.0 1014589
03:00+6в81377100 0.0 1013665
06:00+5всв101586100 0.9 1010636
09:00+5в101494100 5.2 1008746
12:00+6вюв81396100 1.4 1008605
15:00+8вюв61095100 1.6 1007491
18:00+8юв51095100 0.3 1008355
21:00+8ююв5108573 0.4 1008419